Location: Burgwalden
(48.2830°N, 10.7576°E)
Time: 02:29:25
(UTC+00:00)

Cosmos 2026 Rocket - Pass Details

Date: 26 September 2023
Orbit: 940 x 999 km, 82.9° (Epoch: 04 December)

Event Time Altitude Azimuth Distance (km) Brightness Sun altitude
Exits shadow 02:41:53 40° 292° (WNW) 1,395 4.5 -24.3°
Drops below altitude 10° 02:47:26 10° 357° (N) 2,688 6.6 -23.5°
Sets 02:50:07 0° 5° (N) 3,630 7.4 -23.1°
